Home > Weather > The Pas > Past weeks

Flag for Canada Weather for the Past 2 Weeks in The Pas, Manitoba, Canada

Now
1 °F

Light snow. Mostly cloudy.


Feels Like: -6 °F
Forecast: -15 / -2 °F
Wind: 3 mph from Northwest

Location: The Pas

Current Time: Feb 10, 2016 at 7:21:51 PM

Latest Report: Feb 10, 2016 at 6:00 PM


Visibility: 15 mi

Pressure: 30.41 "Hg

Humidity: 78%

Dew point: -4 °F

Location of The PasLocation

Historic Weather in The Pas — Graph

°F

The Pas Temperature Yesterday

Maximum temperature yesterday: 5 °F (at 12:00 AM)
Minimum temperature yesterday: -15 °F (at 8:00 AM)
Average temperature yesterday: -6 °F

High & Low Weather Summary for the Past Weeks

 TemperatureHumidityPressure
High37 °F (Jan 29, 1:00 PM)93% (Jan 26, 10:00 PM)30.52 "Hg (Jan 26, 10:00 PM)
Low-15 °F (Feb 9, 8:00 AM)64% (Feb 9, 6:00 PM)29.06 "Hg (Jan 29, 8:00 PM)
Average8 °F82%29.94 "Hg
* Reported Jan 26 6:00 PM — Feb 10 6:00 PM, The Pas, Weather by CustomWeather, © 2016

Note: Actual official high and low records may vary slightly from our data, if they occured in-between our weather recording intervals... More about our weather records

Advertising

The Pas Weather History for the Previous 24 Hours

 ConditionsComfort  
Time TempWeatherWind HumidityBarometerVisibility
6:00 PM
Wed, Feb 10
1 °FLight snow. Mostly cloudy.3 mph78%30.41 "Hg15 mi
5:00 PM1 °FLight snow. Overcast.5 mph78%30.39 "Hg13 mi
4:00 PM3 °FLight snow. Overcast.No wind72%30.37 "Hg7 mi
3:00 PM3 °FOvercast.6 mph78%30.37 "Hg7 mi
2:00 PM1 °FLight snow. Mostly cloudy.9 mph78%30.35 "Hg15 mi
1:00 PM1 °FLight snow. Overcast.7 mph71%30.34 "Hg15 mi
12:00 PM1 °FLight snow. Mostly cloudy.No wind71%30.31 "Hg15 mi
11:00 AM0 °FLight snow. Mostly cloudy.6 mph71%30.29 "Hg15 mi
10:00 AM-2 °FMostly cloudy.7 mph71%30.29 "Hg13 mi
9:00 AM-4 °FLight snow. Overcast.3 mph71%30.28 "Hg15 mi
8:00 AM-4 °FLight snow. Mostly cloudy.3 mph71%30.27 "Hg12 mi
7:00 AM-4 °FLight snow. Overcast.6 mph71%30.25 "Hg13 mi
6:00 AM-6 °FLight snow. Overcast.8 mph77%30.24 "Hg15 mi
5:00 AM-6 °FLight snow. Overcast.6 mph77%30.24 "Hg15 mi
4:00 AM-6 °FOvercast.8 mph77%30.21 "Hg15 mi
3:00 AM-6 °FPassing clouds.8 mph70%30.22 "Hg15 mi
2:00 AM-6 °FPassing clouds.6 mph77%30.22 "Hg15 mi
1:00 AM-4 °FMostly cloudy.7 mph77%30.23 "Hg15 mi
12:00 AM-4 °FOvercast.7 mph77%30.24 "Hg15 mi
11:00 PM
Tue, Feb 9
-4 °FOvercast.8 mph71%30.26 "Hg15 mi
10:00 PM-4 °FOvercast.8 mph71%30.27 "Hg15 mi
9:00 PM-4 °FOvercast.7 mph71%30.30 "Hg15 mi
8:00 PM-6 °FOvercast.5 mph70%30.33 "Hg15 mi
7:00 PM-6 °FOvercast.7 mph70%30.35 "Hg15 mi
Weather by CustomWeather, © 2016

See weather overviewHow to use our weather pages